Погода в Шардаре

Казахстан     41°15′24″N   67°58′07″E
темп.,
°C
ветер,
м/с
пор.,
м/с
влажн.,
%
обл.,
%
осадки,
мм/ч
давл.,
гПа
погр.,
м
23 мая, пн
пн2300:00+17вюв46456 0.0 1018267
03:00+16вюв34580 0.0 1017170
06:00+15в23550 0.0 1016123
09:00+17всв34450 0.0 1016366
12:00+21всв34360 0.0 10141194
15:00+22юв33330 0.0 10121180
18:00+22ююв22300 0.0 1010859
21:00+21ююв23380 0.0 100949
24 мая, вт
вт2400:00+20ююв11430 0.0 100812
03:00+19в33430 0.0 100723
06:00+18в33450 0.0 100762
09:00+20в22430 0.0 1007222
12:00+24вюв12370 0.0 1006663
15:00+27юв23310 0.0 1004948
18:00+28ююв12310 0.0 1004958
21:00+25сз01380 0.0 100411
25 мая, ср
ср2500:00+24св44380 0.0 100536
03:00+22всв33524 0.0 100530
06:00+21вюв225731 0.0 100622
09:00+23вюв345388 0.0 1007129
12:00+27юв23390 0.0 1008523
15:00+29юв113386 0.0 1008699
18:00+31в11270 0.0 1007621
21:00+29в11295 0.0 100712
26 мая, чт
чт2600:00+28всв22280 0.0 100812
03:00+25в11420 0.0 100812
06:00+24с56400 0.0 100977
09:00+25с912400 0.0 1012460
12:00+28с79332 0.0 1012841
15:00+30ссз78290 0.0 10111145
18:00+30с783098 0.0 10101239
21:00+27с711330 0.0 1011300
27 мая, пт
пт2700:00+24ссз814315 0.0 1012379
03:00+23ссз8133342 0.0 1011378
06:00+21ссз7123862 0.4 1012386
09:00+22ссз68375 0.0 1013413
12:00+25ссз56345 0.0 1012879
15:00+28ссз55290 0.0 10111174
18:00+28зсз65250 0.0 10111662
21:00+23сз13173957 0.0 1013716